STARLINK-4184 (52852 NORAD) Tracking and Keplerian Element Data

This shows tracking and keplerian element data for the satellite.

Feedback or suggestion? Click here.




ElementValue
Catalog52852
NameSTARLINK-4184
Epoch Orbit130
Epoch Day270.00001157
Epoch Year2022
RAAN279.0901
Inclination53.2111
Eccentricity0.0002033
Argument of Perigee42.6321
Mean Anonmoly192.0673
Mean Motion15.08816829
Decay Rate0.00014771
L11 52852U 22062Y 22270.00001157 .00014771 00000+0 94482-3 0 9990
L22 52852 53.2111 279.0901 0002033 42.6321 192.0673 15.08816829 1301

Live tracking and technical data element details for STARLINK-4184 (NORAD 52852). STARLINK-4184 can be tracked NOW for your location showing map with azimuth and elevation plus other details from your city location.

Track the satellite on the map from your city or location and see movement details for azimuth, elevation, latitude, longitude, range, height, and movement on the map or in text.







IsCatalogInMostPopularTable: catalog: 52852, numindb: 10
Update: records affected: 1



GetName: 52852 STARLINK-4184

Hit Count: updated at: Thu, 06 Oct 2022 04:47:11 GMT